This is the latest recevied weather packets stored in our database for station/object W2EH. If no packets are shown the sender has not sent any weather packets the latest 10 day(s).
| Time | Temp. | Humidity | Pressure | Rain* | Wind** | Luminosity | Snow |
|---|---|---|---|---|---|---|---|
| 1777757009 | 24.44° C | 39% | 1018.8 hPa | 0 mm | - | 676 W/m² | - |
| 1777756706 | 24.44° C | 39% | 1019.1 hPa | 0 mm | - | 694 W/m² | - |
| 1777756401 | 24.44° C | 38% | 1019.1 hPa | 0 mm | - | 700 W/m² | - |
| 1777756099 | 24.44° C | 41% | 1019.3 hPa | 0 mm | - | 728 W/m² | - |
| 1777755796 | 24.44° C | 40% | 1019.3 hPa | 0 mm | - | 744 W/m² | - |
| 1777755493 | 24.44° C | 41% | 1019.3 hPa | 0 mm | - | 756 W/m² | - |
| 1777755189 | 24.44° C | 43% | 1019.5 hPa | 0 mm | - | 765 W/m² | - |
| 1777754886 | 23.89° C | 39% | 1020 hPa | 0 mm | - | 781 W/m² | - |
| 1777754583 | 23.89° C | 40% | 1019.8 hPa | 0 mm | - | 795 W/m² | - |
| 1777754281 | 23.89° C | 39% | 1019.8 hPa | 0 mm | - | 795 W/m² | - |
| 1777753979 | 23.89° C | 37% | 1019.8 hPa | 0 mm | - | 808 W/m² | - |
| 1777753678 | 23.89° C | 38% | 1019.8 hPa | 0 mm | - | 809 W/m² | - |
| 1777753376 | 23.89° C | 40% | 1020 hPa | 0 mm | - | 829 W/m² | - |
| 1777753074 | 23.89° C | 39% | 1020 hPa | 0 mm | - | 846 W/m² | - |
| 1777752775 | 23.89° C | 42% | 1020 hPa | 0 mm | - | 846 W/m² | - |
| 1777752471 | 23.89° C | 43% | 1019.9 hPa | 0 mm | - | 859 W/m² | - |
| 1777752167 | 23.33° C | 38% | 1020.2 hPa | 0 mm | - | 863 W/m² | - |
| 1777751866 | 23.33° C | 40% | 1019.9 hPa | 0 mm | - | 879 W/m² | - |
| 1777751562 | 22.78° C | 41% | 1019.9 hPa | 0 mm | - | 882 W/m² | - |
| 1777751258 | 23.33° C | 39% | 1020.1 hPa | 0 mm | - | 893 W/m² | - |
| 1777750956 | 23.33° C | 41% | 1020 hPa | 0 mm | - | 895 W/m² | - |
| 1777750651 | 23.33° C | 43% | 1020 hPa | 0 mm | - | 909 W/m² | - |
| 1777750349 | 22.78° C | 45% | 1020 hPa | 0 mm | - | 913 W/m² | - |
| 1777750049 | 23.33° C | 42% | 1020.1 hPa | 0 mm | - | 922 W/m² | - |
| 1777749747 | 23.33° C | 40% | 1020.1 hPa | 0 mm | - | 928 W/m² | - |
* Rain latest hour (hover to see other rain measurements)
** Current wind speed in m/s (hover to see current wind gust speed)